STARLINK-30842, 58357

Orbit data source: Space-Track

STARLINK-30842, 58357 is a payload satellite owned by SpaceX/Seattle (US) in LEO that was launched on Sat, 18 Nov 2023 UTC via an FALCON 9 launch vehicle from the Air Force Eastern Test Range (AFETR). Payload-class satellites include a variety of spacecraft equipped with specific instruments for various scientific and technological missions. These include communications satellites like Starlink; space stations such as the ISS; scientific satellites like the Hubble; Earth observation satellites from companies like Planet Labs, Umbra, and HawkEye 360; GPS; miniature CubeSats for education and research; and military/defense satellites.

Loading next visibility...
Identifier
58357, 2023-177G
Orbit
LEO
Country
Flag of USUS
Related business
Manufacturer
SpaceX/Seattle
Mission
Operational Commercial Communications
Bus & Motor
STARLINK V2M, Unknown motor
Mass
730 kg wet, ~700 kg dry
Launch date (UTC)
2023-11-18 (3 years ago)
Launch vehicle
FALCON 9
Launch site
Air Force Eastern Test Range (AFETR)
Object type
Payload
Rocket body
Debris
Shape & HBR
Box + 2 Pan, 17.7 m
Radar Cross Section
33.884 m², Large (>1 m²)

Expand to show TLE details & history
Last TLE update: 2 days ago

TLE from 2 days ago
0 STARLINK-30842
1 58357U 23177G   26171.34292068  .00009908  00000-0  36619-3 0  9993
2 58357  43.0095 117.4024 0002614 152.1692 207.9300 15.27839756144080
Epoch: 2026-06-20T08:13Z
TLE epoch observation values (Epoch: 2026-06-20T08:13:48.346Z)
Latitude
-0.00004°
Longitude
85.39201°
Altitude
483.632 km
Speed
7.624 km/s
True Right ascension
07h 49m 36s
True Declination
0° 00' 00"
Sunlit
Object was in daylight at epoch
Visualization orbit readout
Latitude
Unknown
Longitude
Unknown
Altitude
Unknown
Speed
Unknown
Apparent Right ascension
Unknown
Apparent Declination
Unknown
Sunlit
N/A
Visualization observer readout
Local Sidereal Time
21:30:16
Azimuth
Unknown
Elevation
Unknown
Doppler factor
Unknown
Orbital elements
Apogee altitude
486.009 km
Perigee altitude
482.421 km
Semi-major axis
6,862.352 km
Eccentricity
0.00026
Inclination
43.0095°
RAAN
117.4024°
Arg. of periapsis
152.1692°
True anomaly
207.91597°
Mean anomaly
207.93°
Eccentric anomaly
207.92299°
Mean motion
3.81798 °/min
Orbital period
94.29 mins
BSTAR
0.00036619
Loading maneuver chart data...
Computing Atmospheric mass density...
Loading historical data...
Loading historical data...
Loading historical data...
Loading historical data...
Loading historical data...
Loading historical data...
Loading historical data...

Documentation

Showing up to 5 results
|